Hourly Data Report for October 20, 2016

All times are specified in Local Standard Time (LST). Add 1 hour to adjust for Daylight Saving Time where and when it is observed.

WINNIPEG A CS
MANITOBA

49°55'00.000" N
97°14'58.000" W
238.70 m
502S001
71849
XWG

Download Data

Hourly Data (October 2016)
Hourly Data Report for October 20, 2016
Temp Definition
°C
Dew Point Temp Definition
°C
Rel Hum Definition
%
Wind Dir Definition
10's deg

Wind Spd Definition
km/h
Visibility Definition
km
Stn Press Definition
kPa
Hmdx Definition


Wind Chill Definition


Weather Definition


TIME
00:00 1.0 -0.1 93 27 11   99.67     LegendNANA
01:00 1.2 0.1 93 26 11   99.71     LegendNANA
02:00 1.6 0.5 92 29 11   99.73     LegendNANA
03:00 1.7 0.4 91 29 8   99.76     LegendNANA
04:00 1.6 0.5 92 25 7   99.80     LegendNANA
05:00 1.8 0.6 92 26 8   99.83     LegendNANA
06:00 1.7 0.5 92 28 3   99.81     LegendNANA
07:00 1.6 0.5 93 26 7   99.81     LegendNANA
08:00 2.2 0.8 91 24 7   99.80     LegendNANA
09:00 2.4 0.8 89 29 3   99.81     LegendNANA
10:00 3.3 1.3 86 33 2   99.82     LegendNANA
11:00 4.1 1.0 81 18 2   99.82     LegendNANA
12:00 5.0 1.0 75 26 6   99.81     LegendNANA
13:00 5.2 0.8 73 21 7   99.77     LegendNANA
14:00 5.5 -0.2 66 25 4   99.72     LegendNANA
15:00 5.8 -0.2 66 20 4   99.67     LegendNANA
16:00 5.7 -0.3 66 19 7   99.62     LegendNANA
17:00 5.4 -0.1 68 14 6   99.61     LegendNANA
18:00 4.4 0.2 74 16 7   99.62     LegendNANA
19:00 4.7 0.4 73 13 10   99.59     LegendNANA
20:00 4.5 0.6 76 13 14   99.53     LegendNANA
21:00 4.0 0.5 78 14 15   99.48     LegendNANA
22:00 1.5 -0.7 85 17 11   99.45     LegendNANA
23:00 2.2 -0.6 82 16 14   99.36     LegendNANA

Notes on Data Quality.

Legend

  • E = Estimated
  • M = Missing
  • NA = Not Available
  • ‡ = Partner data that is not subject to review by the National Climate Archives
Date modified: